TimeCDT,TemperatureF,Dew PointF,Humidity,Sea Level PressureIn,VisibilityMPH,Wind Direction,Wind SpeedMPH,Gust SpeedMPH,PrecipitationIn,Events,Conditions,WindDirDegrees,DateUTC
12:15 AM,51.6,45.5,80,29.98,10.0,Calm,Calm,-,0.01,Rain,Light Rain,0,2013-10-19 05:15:00
12:35 AM,50.9,46.0,83,29.99,10.0,Calm,Calm,-,0.02,Rain,Rain,0,2013-10-19 05:35:00
12:55 AM,50.4,46.4,86,29.98,7.0,Calm,Calm,-,0.05,Rain,Light Rain,0,2013-10-19 05:55:00
1:15 AM,50.2,46.4,87,29.98,10.0,Calm,Calm,-,0.02,Rain,Light Rain,0,2013-10-19 06:15:00
1:35 AM,50.2,45.5,84,29.98,10.0,Calm,Calm,-,0.02,Rain,Light Rain,0,2013-10-19 06:35:00
1:55 AM,49.3,45.3,86,29.96,7.0,North,4.6,-,0.04,Rain,Light Rain,10,2013-10-19 06:55:00
2:15 AM,48.7,45.0,87,29.96,10.0,NNW,4.6,-,N/A,Rain,Rain,340,2013-10-19 07:15:00
2:35 AM,48.7,45.5,89,29.98,10.0,NW,4.6,-,0.01,Rain,Light Rain,310,2013-10-19 07:35:00
2:55 AM,48.2,45.5,90,29.97,7.0,NW,4.6,-,0.02,Rain,Light Rain,320,2013-10-19 07:55:00
3:15 AM,48.0,45.7,92,29.97,5.0,NNW,5.8,-,0.01,Rain,Light Rain,330,2013-10-19 08:15:00
3:35 AM,47.7,45.1,91,29.97,7.0,NW,4.6,-,0.01,Rain,Light Rain,310,2013-10-19 08:35:00
3:55 AM,47.8,45.5,92,29.96,4.0,WNW,3.5,-,0.03,Rain,Light Rain,300,2013-10-19 08:55:00
4:15 AM,47.5,45.3,92,29.96,5.0,WNW,8.1,-,0.01,Rain,Light Rain,300,2013-10-19 09:15:00
4:35 AM,47.3,45.0,92,29.97,7.0,WNW,8.1,-,0.04,Rain,Light Rain,300,2013-10-19 09:35:00
4:55 AM,47.1,44.8,92,29.97,7.0,WNW,10.4,-,0.05,Rain,Light Rain,300,2013-10-19 09:55:00
5:15 AM,46.8,44.6,92,29.97,7.0,WNW,6.9,-,0.03,Rain,Light Rain,290,2013-10-19 10:15:00
5:35 AM,46.6,44.1,91,29.97,10.0,WNW,4.6,-,0.05,Rain,Light Rain,300,2013-10-19 10:35:00
5:55 AM,46.4,43.9,91,29.96,10.0,NW,3.5,-,0.07,Rain,Light Rain,310,2013-10-19 10:55:00
6:15 AM,46.4,43.3,89,29.97,10.0,WNW,5.8,-,0.01,Rain,Light Rain,300,2013-10-19 11:15:00
6:35 AM,46.2,43.3,90,29.98,10.0,WNW,4.6,-,0.01,,Light Drizzle,290,2013-10-19 11:35:00
6:55 AM,45.7,42.8,90,29.98,10.0,WNW,5.8,-,0.01,Rain,Light Rain,290,2013-10-19 11:55:00
7:15 AM,45.0,41.9,89,29.99,10.0,WNW,11.5,-,N/A,,Overcast,300,2013-10-19 12:15:00
7:35 AM,44.2,41.0,88,30.00,10.0,WNW,5.8,-,N/A,,Overcast,300,2013-10-19 12:35:00
7:55 AM,43.7,40.3,88,30.00,10.0,WNW,5.8,-,N/A,,Mostly Cloudy,300,2013-10-19 12:55:00
8:15 AM,43.9,41.0,90,30.00,10.0,WNW,5.8,-,N/A,,Mostly Cloudy,300,2013-10-19 13:15:00
8:35 AM,45.5,42.1,88,30.00,10.0,WNW,6.9,-,N/A,,Scattered Clouds,300,2013-10-19 13:35:00
8:55 AM,46.0,42.3,87,30.00,10.0,West,6.9,-,N/A,,Mostly Cloudy,280,2013-10-19 13:55:00
9:15 AM,45.5,41.9,87,30.01,10.0,WNW,5.8,-,N/A,,Overcast,300,2013-10-19 14:15:00
9:35 AM,47.3,43.2,86,30.00,10.0,West,8.1,-,N/A,,Mostly Cloudy,280,2013-10-19 14:35:00
9:55 AM,47.8,41.5,79,30.01,10.0,WNW,6.9,-,N/A,,Scattered Clouds,300,2013-10-19 14:55:00
10:15 AM,50.0,42.1,74,30.01,10.0,WNW,8.1,-,N/A,,Scattered Clouds,290,2013-10-19 15:15:00
10:35 AM,50.2,41.5,72,30.01,10.0,West,9.2,-,N/A,,Scattered Clouds,270,2013-10-19 15:35:00
10:55 AM,52.0,41.9,69,30.01,10.0,West,11.5,16.1,N/A,,Scattered Clouds,270,2013-10-19 15:55:00
11:15 AM,52.7,41.0,64,30.01,10.0,WSW,6.9,-,N/A,,Scattered Clouds,240,2013-10-19 16:15:00
11:35 AM,54.0,42.3,65,30.01,10.0,West,8.1,-,N/A,,Scattered Clouds,260,2013-10-19 16:35:00
11:55 AM,53.4,40.5,61,30.01,10.0,WNW,8.1,-,N/A,,Scattered Clouds,300,2013-10-19 16:55:00
1:55 PM,57.9,36.5,45,29.98,10.0,West,11.5,19.6,N/A,,Clear,260,2013-10-19 18:55:00
2:15 PM,58.6,36.1,43,29.98,10.0,SW,11.5,16.1,N/A,,Clear,230,2013-10-19 19:15:00
2:35 PM,59.2,35.1,40,29.98,10.0,WSW,10.4,17.3,N/A,,Clear,250,2013-10-19 19:35:00
2:55 PM,58.8,33.6,39,29.97,10.0,West,11.5,17.3,N/A,,Scattered Clouds,260,2013-10-19 19:55:00
3:15 PM,59.4,34.0,39,29.98,10.0,WSW,12.7,19.6,N/A,,Clear,250,2013-10-19 20:15:00
3:35 PM,59.7,33.6,37,29.98,10.0,WSW,13.8,19.6,N/A,,Clear,250,2013-10-19 20:35:00
3:55 PM,59.7,34.2,38,29.97,10.0,West,15.0,19.6,N/A,,Clear,260,2013-10-19 20:55:00
4:15 PM,59.4,34.5,39,29.97,10.0,WSW,11.5,19.6,N/A,,Clear,240,2013-10-19 21:15:00
4:35 PM,59.7,35.1,40,29.97,10.0,WSW,10.4,16.1,N/A,,Clear,250,2013-10-19 21:35:00
4:55 PM,59.2,34.0,39,29.97,10.0,West,10.4,-,N/A,,Clear,260,2013-10-19 21:55:00
5:15 PM,58.6,34.2,40,29.97,10.0,West,9.2,-,N/A,,Clear,260,2013-10-19 22:15:00
5:35 PM,57.6,34.0,41,29.96,10.0,WSW,9.2,-,N/A,,Clear,250,2013-10-19 22:35:00
5:55 PM,55.9,34.9,45,29.96,10.0,WSW,4.6,-,N/A,,Clear,240,2013-10-19 22:55:00
6:15 PM,53.1,35.4,51,29.97,10.0,WSW,4.6,-,N/A,,Clear,240,2013-10-19 23:15:00
6:35 PM,49.6,37.9,64,29.97,10.0,South,5.8,-,N/A,,Clear,190,2013-10-19 23:35:00
6:55 PM,48.4,37.6,66,29.98,10.0,SSW,5.8,-,N/A,,Clear,210,2013-10-19 23:55:00
7:15 PM,48.9,37.4,64,29.98,10.0,SSW,3.5,-,N/A,,Clear,200,2013-10-20 00:15:00
7:35 PM,44.6,37.4,76,29.98,10.0,South,3.5,-,N/A,,Clear,170,2013-10-20 00:35:00
7:55 PM,43.3,37.6,80,29.99,10.0,South,5.8,-,N/A,,Clear,180,2013-10-20 00:55:00
8:15 PM,43.0,37.8,82,29.99,10.0,SSW,5.8,-,N/A,,Clear,200,2013-10-20 01:15:00
8:35 PM,44.6,38.3,79,29.99,10.0,SSW,5.8,-,N/A,,Clear,200,2013-10-20 01:35:00
8:55 PM,44.2,38.3,80,30.00,10.0,South,6.9,-,N/A,,Clear,190,2013-10-20 01:55:00
9:15 PM,44.6,38.3,79,30.00,10.0,SSW,5.8,-,N/A,,Clear,200,2013-10-20 02:15:00
9:35 PM,44.1,38.1,80,30.00,10.0,South,6.9,-,N/A,,Clear,190,2013-10-20 02:35:00
9:55 PM,44.4,38.3,79,30.00,10.0,SSW,5.8,-,N/A,,Clear,200,2013-10-20 02:55:00
10:15 PM,45.0,38.3,77,30.00,10.0,SSW,4.6,-,N/A,,Clear,200,2013-10-20 03:15:00
10:35 PM,45.0,38.1,77,30.01,10.0,SSW,3.5,-,N/A,,Clear,200,2013-10-20 03:35:00
10:55 PM,44.1,38.3,80,30.00,10.0,South,5.8,-,N/A,,Clear,190,2013-10-20 03:55:00
11:15 PM,44.8,38.5,79,30.00,10.0,South,6.9,-,N/A,,Clear,190,2013-10-20 04:15:00
11:35 PM,45.7,38.5,76,30.00,10.0,South,6.9,-,N/A,,Clear,190,2013-10-20 04:35:00
11:55 PM,45.1,38.5,77,30.00,10.0,South,6.9,-,N/A,,Clear,190,2013-10-20 04:55:00